Showing default

LANDSAT 9, 49260

Orbit data source: Space-Track

LANDSAT 9, 49260 is an American payload satellite in SSO that was launched on Mon, 27 Sep 2021 UTC via an ATLAS V 401 launch vehicle from the Air Force Western Test Range (AFWTR). Payload-class satellites include a variety of spacecraft equipped with specific instruments for various scientific and technological missions. These include communications satellites like Starlink; space stations such as the ISS; scientific satellites like the Hubble; Earth observation satellites from companies like Planet Labs, Umbra, and HawkEye 360; GPS; miniature CubeSats for education and research; and military/defense satellites.

Loading next visibility...
Identifier
49260, 2021-088A
Orbit
SSO
Country
Flag of USUS
Related business
Manufacturer
NGIS SSG Gilbert
Mission
Operational Civil Imaging
Bus & Motor
LEOSTAR-3, Unknown motor
Mass
2,710 kg wet, 2,390 kg dry
Launch date (UTC)
2021-09-27 (5 years ago)
Launch vehicle
ATLAS V 401
Launch site
Air Force Western Test Range (AFWTR)
Object type
Payload
Rocket body
Debris
Shape & HBR
Hex Cyl + 1 Pan, 10.9 m
Radar Cross Section
17.735 m², Large (>1 m²)

Expand to show TLE details & history
Last TLE update: 2 days ago

TLE from 2 days ago
0 LANDSAT 9
1 49260U 21088A   26171.42401958  .00000235  00000-0  62312-4 0  9998
2 49260  98.2280 241.5622 0001329  85.1905 274.9445 14.57098947251475
Epoch: 2026-06-20T10:10Z
TLE epoch observation values (Epoch: 2026-06-20T10:10:35.291Z)
Latitude
-0.00005°
Longitude
-179.72368°
Altitude
705.456 km
Speed
7.503 km/s
True Right ascension
16h 06m 14s
True Declination
0° 00' 00"
Sunlit
Object was in full shadow at epoch
Visualization orbit readout
Latitude
Unknown
Longitude
Unknown
Altitude
Unknown
Speed
Unknown
Apparent Right ascension
Unknown
Apparent Declination
Unknown
Sunlit
N/A
Visualization observer readout
Local Sidereal Time
02:14:41
Azimuth
Unknown
Elevation
Unknown
Doppler factor
Unknown
Orbital elements
Apogee altitude
700.584 km
Perigee altitude
698.702 km
Semi-major axis
7,077.78 km
Eccentricity
0.00013
Inclination
98.228°
RAAN
241.5622°
Arg. of periapsis
85.1905°
True anomaly
274.92933°
Mean anomaly
274.9445°
Eccentric anomaly
274.93691°
Mean motion
3.645 °/min
Orbital period
98.77 mins
BSTAR
0.000062312
Loading maneuver chart data...
Computing Atmospheric mass density...
Loading historical data...
Loading historical data...
Loading historical data...
Loading historical data...
Loading historical data...
Loading historical data...
Loading historical data...
Other satellites on launch #88 in the year 2021 (2021-09-27 UTC)

Documentation

Showing up to 5 results
|